Location: Munkebjergskolens Observatorium
(55.3864°N, 10.3987°E)
Time: 04:07:36
(UTC+02:00)

KKS-1 - Pass Details

Date: 10 April 2023
Orbit: 633 x 644 km, 98.2° (Epoch: 31 May)

Event Time Altitude Azimuth Distance (km) Brightness Sun altitude
Rises 00:09:15 0° 15° (NNE) 2,946 ? -25.2°
Reaches altitude 10° 00:11:28 10° 17° (NNE) 2,033 ? -25.3°
Enters shadow 00:15:26 71° 34° (NE) 679 ? -25.5°
